Temperature
16 16 16 16 16 16 16 16 16 16 16 15 15 15 15 15 15 14 14 15 15 15 14 14 14 14 14 14 14 14 14 14 13 13 13 13 13 13
16 16 16 16 16 16 16 16 16 16 15 15 15 14 14 14 14 14 14 14 14 14 14 14 14 14 14 13 13 13 13 13 13 13 13 13 13 12
16 16 16 15 15 15 15 15 15 15 15 15 14 14 14 14 14 14 13 13 13 13 13 13 13 13 13 13 12 12 12 12 12 12 12 12 12 12
15 15 15 15 15 15 15 15 15 15 14 14 14 14 13 13 13 13 13 12 12 12 12 12 12 12 12 12 12 12 12 12 11 11 11 11 11 11
15 15 15 15 15 15 14 14 14 14 14 14 13 13 13 13 13 12 12 12 12 12 12 12 11 11 11 11 11 11 11 11 11 11 11 11 11 11
14 14 14 14 14 14 14 14 14 14 14 14 13 13 12 12 12 12 12 12 11 11 11 11 11 11 11 11 11 10 10 10 10 10 10 10 10 10
14 14 14 14 14 14 14 14 13 13 13 13 13 12 12 12 12 12 12 11 11 11 11 10 10 10 10 10 10 10 10 9 9 9 9 9 9 9
14 13 13 13 13 13 13 13 13 13 13 12 12 12 12 11 11 11 11 11 11 10 10 10 10 10 9 9 9 9 9 9 9 9 9 9 9 9
13 13 13 13 13 12 13 13 13 13 12 12 12 11 11 11 11 11 11 11 10 10 10 10 10 9 9 9 9 9 9 8 8 8 8 8 8 8
13 12 12 12 12 12 12 12 12 12 12 11 11 11 11 11 11 11 10 10 10 10 9 10 10 9 9 8 8 8 8 8 8 8 8 8 8 7
12 12 12 12 12 12 11 11 11 11 11 11 11 11 11 11 10 10 10 11 10 10 9 9 9 9 9 9 8 8 8 8 8 8 7 7 7 7
11 11 11 11 11 11 11 11 10 10 10 10 10 10 10 10 10 10 10 10 10 10 9 9 9 9 9 9 8 8 8 8 7 7 7 7 7 6
11 11 11 11 11 11 10 10 10 10 10 10 10 10 10 9 9 9 9 9 9 9 9 9 9 9 9 9 8 8 8 7 7 7 7 7 7 6
11 10 10 10 10 10 10 10 10 10 10 10 10 9 9 9 9 8 8 8 8 8 8 8 8 8 8 8 8 8 8 7 7 7 7 7 6 6
10 10 10 10 10 9 9 9 9 9 10 10 9 9 9 8 8 8 8 8 8 8 8 8 8 8 8 8 8 8 8 8 7 7 7 7 6 6
10 10 9 9 9 9 9 9 9 9 9 9 9 9 9 9 8 8 9 9 9 8 8 7 7 7 8 8 8 8 8 7 7 7 7 7 7 6
9 9 9 9 9 9 9 9 9 9 9 9 9 9 9 9 8 8 8 8 9 8 8 8 7 7 7 7 8 8 7 7 7 7 6 7 7 6
9 9 9 9 9 9 9 9 8 8 8 8 8 8 8 8 8 8 8 8 8 8 8 8 8 8 8 8 7 7 7 7 7 7 6 7 7 6
9 9 9 9 9 9 9 8 8 8 8 8 8 8 8 8 8 8 8 8 8 8 8 8 8 8 8 8 7 7 7 7 7 7 6 6 6 6
9 9 9 8 8 8 8 8 8 8 7 8 8 8 8 8 8 8 8 8 8 8 8 8 7 7 7 7 7 7 7 6 6 6 6 6 6 6
9 9 8 8 8 8 8 8 7 7 7 7 7 7 7 8 8 8 8 7 7 7 7 7 7 6 6 7 7 7 7 6 6 6 6 6 6 6
8 8 8 8 8 7 7 7 7 7 7 7 7 7 7 7 7 7 7 7 7 7 7 7 7 7 7 7 7 7 7 6 6 6 6 5 5 5
8 8 8 7 7 7 7 7 7 7 7 7 7 7 7 7 7 7 7 7 7 7 7 7 7 7 7 7 7 7 7 6 6 6 6 6 5 5
Wind_Speed
2 3 3 3 3 3 3 4 4 4 2 1 0 1 2 4 6 7 7 11 10 10 9 8 9 8 7 7 6 5 4 3 3 2 2 2 3 4
1 1 2 2 1 2 3 3 3 3 2 0 1 2 3 4 7 6 7 12 12 12 11 11 12 12 11 11 11 10 9 7 6 4 4 3 2 2
2 1 1 2 1 1 2 2 2 2 2 1 2 3 3 3 4 4 5 7 10 13 13 13 13 13 13 12 12 11 11 10 9 8 7 6 5 3
3 3 2 1 1 1 1 0 1 1 2 2 2 2 3 4 4 3 4 6 8 12 12 12 12 12 12 12 11 10 10 9 9 9 9 8 8 6
5 5 4 3 2 2 1 1 1 1 2 3 2 2 2 3 4 4 4 4 5 8 9 10 10 10 11 11 10 9 9 8 8 9 9 9 9 9
7 6 6 5 4 3 2 2 1 2 3 3 3 3 3 3 2 2 3 3 3 4 5 6 8 8 10 9 9 8 8 8 8 8 8 8 9 10
7 8 8 9 10 7 4 4 3 2 3 3 3 2 2 2 1 1 2 2 3 3 2 3 3 4 5 7 8 7 7 7 7 8 8 8 8 8
7 7 8 8 9 9 10 10 8 4 3 3 3 3 2 2 1 0 1 1 1 2 2 3 3 3 4 6 7 7 6 5 5 5 6 6 6 6
8 7 7 8 7 8 9 9 10 8 6 4 4 4 3 2 2 2 2 2 2 2 2 2 2 3 4 7 8 6 5 4 3 3 3 4 4 4
8 8 8 9 9 7 8 9 9 9 8 6 6 5 5 4 2 1 2 2 2 2 2 1 2 2 2 4 7 5 4 3 2 1 1 1 2 2
9 9 8 9 11 9 7 8 8 8 11 12 10 8 8 7 5 1 1 0 1 1 1 1 1 1 1 2 4 5 5 4 3 2 1 0 1 1
8 9 12 10 10 10 7 7 7 6 6 6 6 5 6 6 5 5 3 2 1 1 2 2 1 1 1 1 2 1 2 4 4 4 2 1 3 3
6 7 8 9 9 9 7 6 5 3 3 4 4 4 4 4 4 5 5 4 4 3 3 2 2 2 2 1 2 2 2 2 0 1 3 3 2 3
6 6 7 6 7 8 6 5 4 3 3 3 3 3 3 3 4 4 5 5 4 3 3 4 3 3 3 3 2 2 2 2 2 2 2 2 4 4
7 8 5 3 3 5 5 3 3 2 3 3 4 4 4 4 3 2 2 2 2 2 3 3 4 3 3 3 3 3 2 2 2 3 3 3 2 1
5 6 5 2 2 4 2 2 4 5 4 3 3 3 3 3 3 4 3 2 2 2 2 2 3 4 4 4 4 3 3 3 3 3 4 4 3 2
2 3 3 2 2 3 3 3 3 3 3 3 3 3 2 3 3 3 3 3 3 3 2 2 2 3 4 4 4 4 4 5 4 3 4 5 4 3
1 2 2 2 2 2 2 2 3 4 3 3 3 3 3 3 3 3 3 4 4 4 4 3 3 3 3 1 2 4 4 5 5 4 5 5 4 3
1 2 2 2 2 2 2 2 3 3 3 3 3 3 3 4 3 3 3 4 4 4 4 4 4 5 6 5 1 2 5 6 6 5 5 5 5 4
1 2 2 1 1 2 2 2 2 2 2 2 2 3 3 4 4 4 4 5 5 5 5 4 4 6 7 7 6 4 2 4 5 6 6 6 5 4
1 1 1 1 1 1 2 2 2 2 3 3 3 3 4 4 4 5 4 3 5 6 6 5 4 5 7 6 6 5 3 3 4 5 6 6 6 5
1 1 1 1 1 1 1 2 2 2 2 3 3 4 4 4 5 5 6 5 5 6 6 6 4 5 6 6 7 7 6 4 5 8 8 6 6 6
0 0 0 1 1 1 1 2 2 2 3 4 4 4 5 5 5 5 5 6 6 6 7 6 6 6 6 7 7 7 8 7 5 4 4 7 10 11
Wind_Direction
271 262 261 261 259 255 246 241 245 248 241 202 202 39 71 75 72 75 67 71 73 67 61 56 51 43 38 34 30 23 15 8 2 354 333 305 283 263
306 304 297 298 275 251 253 253 244 239 246 207 63 59 68 82 81 80 80 81 74 72 68 64 60 56 54 53 51 51 51 48 42 33 22 1 331 312
348 338 329 309 293 271 254 247 231 209 200 166 82 81 76 75 82 89 94 87 81 78 76 72 68 63 59 57 55 55 53 50 47 43 40 37 31 20
12 8 353 333 338 321 301 249 155 168 168 155 110 92 92 97 91 85 83 88 93 89 87 81 75 69 64 60 56 55 53 50 48 48 45 43 39 37
30 27 20 22 27 39 24 45 110 133 135 143 129 99 97 92 91 85 79 68 86 104 104 94 86 79 72 65 60 56 54 53 51 50 48 48 45 43
48 42 35 34 33 39 53 52 87 114 114 126 125 114 107 92 85 87 90 80 66 77 83 94 108 101 82 70 62 56 56 57 59 57 55 56 58 58
59 54 53 53 47 41 40 41 56 79 104 112 113 108 95 95 90 100 95 97 80 45 48 74 95 84 84 73 61 55 59 61 61 61 60 60 61 60
64 63 66 62 68 67 62 56 47 56 75 87 95 99 87 87 85 86 77 61 68 46 23 45 48 56 61 58 62 65 66 65 60 56 57 59 58 57
63 58 59 58 58 71 78 80 66 54 47 53 70 58 65 55 32 62 58 44 44 46 34 52 49 46 64 72 82 78 75 68 62 61 61 60 57 55
64 61 62 57 50 51 70 70 65 59 56 60 60 48 47 40 44 74 107 134 128 88 26 14 48 44 54 84 107 102 102 96 85 78 88 90 72 47
66 57 57 63 32 20 66 73 75 79 77 77 73 74 66 46 13 17 56 114 97 99 50 341 17 23 44 86 120 143 145 143 142 143 140 144 259 270
81 72 56 48 35 20 62 68 69 67 72 86 88 94 81 70 46 13 359 352 359 69 58 333 342 338 3 41 33 101 145 155 170 173 170 268 312 305
84 78 66 49 44 31 39 61 46 31 75 81 84 80 74 63 54 43 17 2 2 22 29 336 332 338 333 335 346 356 4 15 8 186 193 203 271 306
81 80 78 62 58 46 51 35 337 313 70 72 65 57 49 45 50 46 37 28 20 17 10 348 333 331 319 321 333 338 340 345 341 338 345 186 216 226
79 77 86 101 123 92 65 353 334 34 52 56 52 46 41 35 30 57 72 70 65 51 42 357 332 327 314 317 318 322 322 326 320 316 318 320 312 284
107 123 140 118 93 83 102 53 45 34 26 41 43 40 35 33 19 9 3 1 6 53 70 359 331 320 316 325 318 323 328 323 316 318 320 311 304 308
125 131 117 108 92 76 65 47 32 33 27 22 23 27 22 19 15 9 355 342 343 350 8 353 329 309 304 308 318 326 322 316 318 326 303 301 306 314
293 110 96 75 63 57 47 47 38 26 13 10 12 9 360 351 351 353 345 340 337 340 346 342 330 317 300 281 312 314 313 312 313 309 299 298 302 311
150 94 82 66 46 39 33 23 23 27 354 350 357 356 347 338 339 339 337 335 331 335 336 334 331 327 318 320 274 257 313 316 315 313 310 306 304 311
96 82 80 67 45 22 21 10 4 4 346 338 348 350 344 340 340 336 338 342 327 322 324 332 339 334 320 318 318 312 253 305 314 311 311 306 301 290
106 87 53 37 34 30 9 355 349 351 350 329 339 340 336 333 336 331 333 341 312 317 323 330 345 300 292 294 300 310 317 233 260 290 304 306 308 299
95 97 59 12 2 357 343 329 327 343 332 314 329 326 325 324 326 322 324 323 320 322 322 325 329 312 308 310 311 315 318 311 262 236 247 266 301 307
147 127 146 265 292 307 314 317 319 330 331 326 328 326 326 326 322 321 321 319 323 324 319 318 320 317 316 316 315 315 317 316 313 296 274 230 234 248
Height
1551 1551 1550 1550 1550 1550 1551 1552 1553 1552 1553 1554 1554 1554 1553 1553 1553 1552 1552 1551 1551 1550 1550 1549 1548 1547 1546 1545 1543 1543 1542 1541 1540 1539 1538 1538 1538 1538
1549 1548 1548 1548 1548 1548 1548 1549 1550 1551 1551 1552 1552 1552 1552 1552 1551 1551 1550 1550 1549 1549 1548 1547 1546 1544 1543 1542 1541 1539 1538 1537 1537 1536 1535 1534 1534 1533
1547 1546 1545 1545 1545 1546 1546 1547 1547 1548 1549 1550 1550 1550 1550 1550 1550 1550 1550 1549 1548 1547 1546 1546 1544 1543 1542 1540 1539 1538 1536 1535 1534 1533 1532 1531 1530 1530
1546 1545 1544 1544 1543 1544 1545 1545 1546 1546 1547 1548 1548 1549 1548 1549 1549 1549 1549 1548 1547 1546 1545 1544 1543 1542 1540 1539 1537 1536 1535 1533 1532 1531 1530 1529 1528 1527
1545 1545 1543 1543 1542 1543 1543 1544 1545 1546 1546 1547 1547 1547 1548 1547 1547 1548 1548 1547 1547 1546 1545 1544 1543 1541 1540 1538 1536 1534 1533 1532 1531 1530 1528 1527 1526 1525
1545 1544 1543 1542 1542 1542 1542 1543 1543 1544 1545 1546 1546 1547 1547 1546 1547 1547 1547 1547 1547 1547 1545 1544 1542 1541 1539 1537 1536 1534 1532 1531 1530 1528 1527 1526 1525 1524
1546 1545 1544 1543 1542 1542 1542 1542 1543 1544 1545 1545 1545 1546 1546 1546 1546 1546 1546 1546 1546 1546 1545 1544 1543 1541 1540 1537 1535 1534 1532 1530 1529 1528 1527 1525 1524 1523
1546 1546 1545 1544 1543 1542 1542 1542 1542 1543 1544 1544 1545 1545 1545 1546 1545 1546 1546 1545 1545 1545 1545 1544 1543 1542 1540 1538 1536 1534 1532 1531 1529 1528 1527 1525 1524 1522
1547 1547 1546 1545 1544 1544 1543 1543 1542 1543 1544 1545 1545 1545 1545 1545 1545 1545 1544 1544 1544 1544 1544 1543 1543 1542 1540 1538 1536 1534 1532 1531 1529 1528 1526 1525 1523 1522
1549 1548 1548 1547 1546 1546 1545 1544 1544 1544 1544 1545 1545 1545 1545 1544 1544 1544 1544 1543 1543 1543 1543 1543 1542 1541 1540 1538 1536 1534 1532 1530 1529 1527 1526 1524 1523 1522
1550 1550 1549 1549 1548 1547 1547 1546 1546 1546 1546 1546 1546 1545 1545 1544 1544 1545 1544 1544 1544 1543 1543 1542 1541 1540 1539 1538 1536 1534 1532 1530 1529 1527 1526 1524 1523 1521
1552 1551 1550 1550 1549 1549 1549 1548 1548 1548 1549 1548 1547 1547 1546 1545 1544 1544 1544 1544 1544 1543 1542 1541 1541 1540 1539 1538 1536 1535 1533 1531 1529 1527 1526 1524 1522 1521
1555 1554 1553 1552 1551 1550 1550 1549 1549 1550 1550 1550 1549 1549 1548 1547 1546 1544 1543 1543 1543 1542 1541 1540 1539 1539 1538 1536 1535 1534 1533 1531 1530 1528 1526 1524 1522 1521
1556 1555 1554 1554 1553 1552 1552 1551 1551 1551 1552 1552 1551 1550 1549 1548 1547 1545 1544 1543 1542 1541 1540 1539 1539 1537 1537 1535 1534 1533 1532 1530 1529 1528 1526 1524 1522 1520
1556 1556 1556 1555 1555 1555 1554 1553 1553 1553 1553 1553 1552 1551 1550 1548 1547 1546 1545 1543 1542 1541 1540 1538 1538 1537 1536 1535 1534 1532 1531 1529 1528 1527 1525 1523 1521 1520
1558 1557 1557 1557 1557 1556 1556 1555 1555 1554 1554 1553 1552 1552 1550 1549 1548 1547 1546 1545 1544 1542 1540 1538 1537 1536 1535 1534 1533 1532 1530 1529 1527 1525 1524 1522 1520 1519
1559 1559 1559 1559 1558 1558 1557 1556 1556 1555 1554 1554 1553 1552 1551 1550 1549 1547 1546 1545 1544 1542 1540 1538 1537 1535 1534 1533 1532 1530 1529 1527 1526 1524 1522 1520 1519 1517
1560 1560 1560 1559 1559 1558 1558 1557 1556 1555 1554 1553 1553 1552 1551 1550 1549 1547 1546 1545 1543 1542 1540 1538 1536 1534 1533 1531 1531 1529 1527 1526 1524 1522 1520 1518 1517 1515
1560 1560 1559 1559 1559 1558 1558 1557 1556 1555 1554 1553 1553 1552 1551 1549 1548 1547 1546 1544 1543 1541 1539 1537 1536 1534 1532 1530 1528 1527 1526 1524 1522 1520 1518 1516 1515 1513
1559 1559 1559 1559 1559 1558 1558 1557 1556 1555 1554 1553 1553 1551 1550 1549 1548 1546 1545 1543 1542 1540 1538 1537 1535 1533 1531 1530 1527 1525 1523 1522 1520 1518 1516 1514 1512 1511
1559 1559 1559 1559 1558 1558 1557 1556 1556 1555 1554 1553 1552 1551 1550 1548 1547 1545 1544 1542 1540 1539 1537 1535 1533 1531 1529 1528 1526 1524 1522 1519 1517 1516 1514 1512 1510 1508
1559 1559 1558 1558 1557 1557 1556 1556 1555 1554 1553 1552 1551 1550 1549 1547 1546 1544 1543 1541 1539 1537 1536 1534 1532 1530 1528 1526 1524 1521 1519 1517 1515 1513 1511 1510 1508 1506
1558 1558 1557 1557 1557 1556 1556 1555 1555 1554 1553 1552 1550 1549 1548 1546 1545 1543 1541 1540 1538 1536 1534 1532 1530 1528 1526 1524 1522 1520 1517 1515 1513 1511 1509 1506 1505 1503